This is the latest recevied weather packets stored in our database for station/object KG7BDA. If no packets are shown the sender has not sent any weather packets the latest 10 day(s).
| Time | Temp. | Humidity | Pressure | Rain* | Wind** | Luminosity | Snow |
|---|---|---|---|---|---|---|---|
| 1778181325 | 20.56° C | 34% | 1016.6 hPa | 0 mm | - | - | - |
| 1778180965 | 20.56° C | 35% | 1016.7 hPa | 0 mm | - | - | - |
| 1778180604 | 20.56° C | 34% | 1016.7 hPa | 0 mm | - | - | - |
| 1778180246 | 20.56° C | 35% | 1016.8 hPa | 0 mm | - | - | - |
| 1778179885 | 20.56° C | 35% | 1016.8 hPa | 0 mm | - | - | - |
| 1778179525 | 20° C | 36% | 1016.9 hPa | 0 mm | - | - | - |
| 1778179165 | 20° C | 36% | 1017 hPa | 0 mm | - | - | - |
| 1778178806 | 20° C | 36% | 1017.1 hPa | 0 mm | - | - | - |
| 1778178446 | 20° C | 37% | 1017.2 hPa | 0 mm | - | - | - |
| 1778178085 | 20° C | 37% | 1017.4 hPa | 0 mm | - | - | - |
| 1778177725 | 20° C | 37% | 1017.3 hPa | 0 mm | - | - | - |
| 1778177365 | 20° C | 37% | 1017.3 hPa | 0 mm | - | - | - |
| 1778177006 | 20° C | 37% | 1017.4 hPa | 0 mm | - | - | - |
| 1778176645 | 19.44° C | 37% | 1017.4 hPa | 0 mm | - | - | - |
| 1778176285 | 19.44° C | 38% | 1017.4 hPa | 0 mm | - | - | - |
| 1778175925 | 19.44° C | 37% | 1017.5 hPa | 0 mm | - | - | - |
| 1778175565 | 20° C | 38% | 1016.7 hPa | 0 mm | - | - | - |
| 1778175205 | 19.44° C | 40% | 1016.8 hPa | 0 mm | - | - | - |
| 1778174991 | 19.44° C | 37% | 1016.8 hPa | 0 mm | - | - | - |
| 1778174845 | 19.44° C | 37% | 1016.8 hPa | 0 mm | - | - | - |
| 1778174485 | 19.44° C | 37% | 1016.8 hPa | 0 mm | - | - | - |
| 1778174125 | 18.89° C | 37% | 1016.8 hPa | 0 mm | - | - | - |
| 1778173804 | 18.89° C | 40% | 1016.9 hPa | 0 mm | - | - | - |
| 1778173765 | 18.89° C | 40% | 1016.9 hPa | 0 mm | - | - | - |
| 1778173405 | 18.89° C | 42% | 1017 hPa | 0 mm | - | - | - |
* Rain latest hour (hover to see other rain measurements)
** Current wind speed in m/s (hover to see current wind gust speed)